IBE212 RJCC-RJGG

Flight info

Callsign IBE212
Flight time N/A
Altitude 40000
Route DALBI Y120 TAPPI Y12 MBE Y121 SWING
Aircraft A346/H-SDE2E3FGHIJ3J4J5M1RWXY/LB1D1

Departure

Time 2026-05-03 20:24
Airport New Chitose Airport (RJCC)

Arrival

Time N/A
Airport Chubu Centrair International Airport (RJGG)
Time Latitude Longitude Altitude Speed Heading
2026-05-03 20:15 41.75110 141.20642 11546 ft 413 kts 17°
2026-05-03 20:15 41.77792 141.22001 11037 ft 410 kts 17°
2026-05-03 20:15 41.80436 141.23344 10753 ft 400 kts 17°
2026-05-03 20:15 41.82967 141.24630 10574 ft 387 kts 17°
2026-05-03 20:16 41.85437 141.25885 10480 ft 372 kts 17°
2026-05-03 20:16 41.87819 141.27098 10365 ft 359 kts 17°
2026-05-03 20:16 41.90112 141.28265 10256 ft 346 kts 17°
2026-05-03 20:16 41.92328 141.29393 10152 ft 334 kts 17°
2026-05-03 20:17 41.94465 141.30482 10065 ft 323 kts 16°
2026-05-03 20:17 41.96486 141.31725 9929 ft 318 kts 28°
2026-05-03 20:17 41.98272 141.33506 9623 ft 320 kts 40°
2026-05-03 20:17 41.99882 141.35539 9304 ft 320 kts 43°
2026-05-03 20:18 42.01465 141.37637 8993 ft 318 kts 44°
2026-05-03 20:18 42.03029 141.39710 8736 ft 314 kts 44°
2026-05-03 20:18 42.04586 141.41751 8473 ft 311 kts 44°
2026-05-03 20:18 42.06139 141.43764 8197 ft 308 kts 44°
2026-05-03 20:19 42.07682 141.45752 7908 ft 306 kts 44°
2026-05-03 20:19 42.09220 141.47730 7616 ft 304 kts 44°
2026-05-03 20:19 42.10747 141.49696 7319 ft 302 kts 44°
2026-05-03 20:19 42.12288 141.51614 7024 ft 301 kts 39°
2026-05-03 20:20 42.14041 141.53135 6737 ft 299 kts 26°
2026-05-03 20:20 42.15943 141.54265 6460 ft 297 kts 21°
2026-05-03 20:20 42.17832 141.55278 6181 ft 295 kts 21°
2026-05-03 20:20 42.19745 141.56291 5911 ft 293 kts 21°
2026-05-03 20:21 42.21643 141.57308 5612 ft 292 kts 22°
2026-05-03 20:21 42.23521 141.58328 5334 ft 289 kts 22°
2026-05-03 20:21 42.25383 141.59347 5058 ft 287 kts 23°
2026-05-03 20:21 42.27226 141.60360 4783 ft 285 kts 23°
2026-05-03 20:22 42.29033 141.61358 4515 ft 283 kts 24°
2026-05-03 20:22 42.30853 141.62364 4237 ft 281 kts 24°
2026-05-03 20:22 42.32656 141.63362 3951 ft 280 kts 24°
2026-05-03 20:22 42.34453 141.64359 3670 ft 278 kts 24°
2026-05-03 20:23 42.36238 141.65349 3393 ft 277 kts 24°
2026-05-03 20:23 42.38018 141.66336 3115 ft 275 kts 25°
2026-05-03 20:23 42.39783 141.67315 2992 ft 270 kts 25°
2026-05-03 20:23 42.41485 141.68259 2983 ft 257 kts 25°
2026-05-03 20:24 42.43092 141.69150 2977 ft 243 kts 25°
2026-05-03 20:24 42.44614 141.69995 2974 ft 230 kts 25°
2026-05-03 20:24 42.46051 141.70794 2964 ft 219 kts 25°
2026-05-03 20:24 42.47453 141.71576 2977 ft 218 kts 25°
2026-05-03 20:25 42.48857 141.72361 2986 ft 218 kts 25°
2026-05-03 20:25 42.50269 141.73113 2986 ft 219 kts 20°
2026-05-03 20:25 42.51754 141.73584 2996 ft 220 kts
2026-05-03 20:25 42.53293 141.73651 2992 ft 221 kts 358°
2026-05-03 20:26 42.54828 141.73461 2998 ft 222 kts 354°
2026-05-03 20:26 42.56342 141.73187 2996 ft 221 kts 353°
2026-05-03 20:26 42.57871 141.72895 2991 ft 221 kts 353°
2026-05-03 20:26 42.59400 141.72610 2992 ft 222 kts 353°
2026-05-03 20:27 42.60932 141.72334 2989 ft 222 kts 353°
2026-05-03 20:27 42.62472 141.72063 2813 ft 224 kts 353°
2026-05-03 20:27 42.64028 141.71789 2521 ft 226 kts 354°
2026-05-03 20:27 42.65600 141.71512 2197 ft 229 kts 355°
2026-05-03 20:28 42.67182 141.71234 1910 ft 228 kts 355°
2026-05-03 20:28 42.68720 141.70963 1633 ft 218 kts 355°
2026-05-03 20:28 42.70191 141.70703 1309 ft 207 kts 355°
2026-05-03 20:28 42.71567 141.70461 998 ft 192 kts 354°
2026-05-03 20:29 42.72847 141.70237 747 ft 178 kts 353°
2026-05-03 20:29 42.74016 141.70030 527 ft 166 kts 353°
2026-05-03 20:29 42.75125 141.69834 300 ft 155 kts 353°
2026-05-03 20:29 42.76151 141.69652 119 ft 145 kts 353°
2026-05-03 20:30 42.77080 141.69485 83 ft 114 kts 353°
2026-05-03 20:30 42.77680 141.69384 66 ft 62 kts 352°
2026-05-03 20:30 42.78053 141.69317 63 ft 49 kts 353°
2026-05-03 20:30 42.78285 141.69207 66 ft 20 kts 327°
2026-05-03 20:31 42.78304 141.69189 68 ft 0 kts 324°
2026-05-03 20:36 42.78304 141.69188 68 ft 0 kts 324°
2026-05-03 20:36 42.78305 141.69188 72 ft 0 kts 324°
2026-05-03 20:36 42.78305 141.69187 71 ft 0 kts 324°
2026-05-03 20:41 42.78348 141.69147 68 ft 15 kts 326°
2026-05-03 20:41 42.78423 141.69067 72 ft 3 kts 310°
2026-05-03 20:41 42.78442 141.68997 74 ft 13 kts 272°
2026-05-03 20:41 42.78435 141.68881 69 ft 13 kts 263°
2026-05-03 20:42 42.78426 141.68737 76 ft 15 kts 271°
2026-05-03 20:42 42.78472 141.68649 68 ft 15 kts 335°
2026-05-03 20:42 42.78576 141.68627 70 ft 12 kts 358°
2026-05-03 20:42 42.78661 141.68616 68 ft 15 kts 353°
2026-05-03 20:43 42.78766 141.68588 63 ft 15 kts 333°
2026-05-03 20:43 42.78794 141.68513 71 ft 7 kts 269°
2026-05-03 20:43 42.78815 141.68424 66 ft 6 kts 320°
2026-05-03 20:43 42.78897 141.68370 71 ft 15 kts 335°
2026-05-03 20:44 42.78968 141.68315 69 ft 15 kts 325°
2026-05-03 20:44 42.79028 141.68240 69 ft 15 kts 312°
2026-05-03 20:44 42.79081 141.68141 72 ft 5 kts 299°
2026-05-03 20:44 42.79120 141.68022 71 ft 9 kts 285°
2026-05-03 20:45 42.79134 141.67917 74 ft 11 kts 274°
2026-05-03 20:45 42.79133 141.67851 74 ft 9 kts 252°
2026-05-03 20:45 42.79098 141.67825 74 ft 7 kts 187°
2026-05-03 20:45 42.79051 141.67825 67 ft 7 kts 175°
2026-05-03 20:46 42.79045 141.67826 67 ft 0 kts 175°